EST,Max TemperatureF,Mean TemperatureF,Min TemperatureF,Max Dew PointF,MeanDew PointF,Min DewpointF,Max Humidity, Mean Humidity, Min Humidity, Max Sea Level PressureIn, Mean Sea Level PressureIn, Min Sea Level PressureIn, Max VisibilityMiles, Mean VisibilityMiles, Min VisibilityMiles, Max Wind SpeedMPH, Mean Wind SpeedMPH, Max Gust SpeedMPH,PrecipitationIn, CloudCover, Events, WindDirDegrees
2013-11-1,53,49,45,50,43,37,93,80,66,29.70,29.53,29.26,10,7,2,26,11,38,0.18,8,Rain,248
2013-11-2,51,47,42,43,41,37,92,79,66,30.12,29.82,29.68,10,10,2,14,6,20,0.04,8,Rain,303
2013-11-3,51,42,33,38,32,30,89,70,50,30.40,30.30,30.13,10,10,10,12,5,17,0.00,4,,122
2013-11-4,51,44,37,40,32,28,85,64,42,30.41,30.33,30.25,10,10,10,17,9,26,0.00,1,,148
2013-11-5,54,52,50,47,44,40,83,75,66,30.34,30.26,30.11,10,9,5,15,8,17,T,7,,175
2013-11-6,56,49,42,54,46,37,93,77,61,30.09,29.94,29.80,10,7,2,25,14,31,0.59,8,Rain,229
2013-11-7,47,40,33,36,30,27,82,64,45,30.20,30.16,30.08,10,8,2,22,9,28,0.13,6,Rain-Snow,299
2013-11-8,46,38,29,32,30,26,96,71,45,30.33,30.23,30.13,10,9,4,13,5,16,0.01,3,Snow,230
2013-11-9,55,48,41,39,34,29,65,59,53,30.09,29.93,29.86,10,10,10,26,16,36,0.00,5,,240
2013-11-10,47,41,34,31,29,25,76,63,49,30.31,30.20,29.99,10,10,10,29,13,36,0.00,6,,283
2013-11-11,44,35,25,38,29,19,86,72,58,30.40,30.19,30.07,10,8,1,21,11,28,0.14,7,Rain-Snow,307
2013-11-12,34,27,20,22,18,16,84,69,53,30.63,30.57,30.43,10,10,7,20,9,25,T,3,Snow,321
2013-11-13,39,31,22,22,18,10,88,60,32,30.57,30.42,30.22,10,10,10,22,12,29,0.00,0,,222
2013-11-14,50,40,30,24,20,17,63,50,36,30.22,30.09,29.99,10,10,10,22,13,30,0.00,0,,213
2013-11-15,51,42,33,30,27,23,69,54,39,30.05,30.02,30.00,10,10,10,16,8,21,0.00,2,,188
2013-11-16,57,48,38,54,44,30,93,77,60,30.05,29.91,29.70,10,8,4,24,11,35,0.14,6,Rain,169
2013-11-17,63,54,45,59,53,37,90,83,76,29.70,29.49,29.24,10,7,1,39,19,59,1.08,8,Rain-Thunderstorm,204
2013-11-18,46,41,35,37,30,23,76,68,59,30.20,29.90,29.61,10,10,10,25,16,36,T,8,,284
2013-11-19,43,36,29,24,22,20,69,54,39,30.38,30.34,30.21,10,10,10,15,4,20,0.00,3,,351
2013-11-20,45,37,28,32,25,22,75,60,45,30.40,30.31,30.20,10,10,10,17,7,24,T,1,Rain,140
2013-11-21,50,45,39,45,41,35,100,85,70,30.25,30.20,30.17,10,8,3,16,6,20,0.17,8,Rain,175
2013-11-22,46,36,25,45,34,22,93,79,64,30.43,30.28,30.15,10,7,2,21,10,25,0.01,6,Rain,319
2013-11-23,30,23,16,23,16,5,84,67,50,30.61,30.44,30.33,10,8,1,28,12,37,T,4,Snow,316
2013-11-24,25,20,14,16,10,4,80,65,49,30.67,30.59,30.44,10,8,2,15,7,28,T,5,Snow,265
2013-11-25,31,25,19,25,15,5,85,66,47,30.42,30.20,30.08,10,9,2,21,13,29,T,6,Snow,214
2013-11-26,33,29,25,28,23,13,78,68,57,30.11,30.04,29.95,10,8,2,23,11,28,T,8,Rain-Snow,244
2013-11-27,32,26,19,16,13,10,71,57,43,30.25,30.11,30.00,10,10,10,26,12,31,0.00,4,,339
2013-11-28,29,25,21,20,16,12,81,66,50,30.45,30.30,30.22,10,9,2,15,7,18,T,8,Snow,210
2013-11-29,36,29,21,22,18,17,84,66,47,30.66,30.58,30.47,10,10,8,10,3,15,0.00,3,,142
2013-11-30,47,38,28,29,24,18,75,62,49,30.50,30.27,30.09,10,10,9,18,9,23,0.00,1,,186